[[{"header":{"parameterUnit":"m.s-1","parameterCategory":2,"la1":30.2991,"la2":30.254,"lo1":-89.0895,"lo2":-89.0444,"dy":0.0017,"dx":0.0017,"nx":28,"ny":28,"refTime":"2026-01-10T03:00:00:Z","depth":"0","parameterNumber":2,"parameterNumberName":"U-component_of_CURRENTS"},"data":[0,0,0,0,0,0,0,0,0,0,0,0,0,0,0,0,0,0,0,0,0,0,0,0,0,0,0,0,0,0,0,0,0,0,0,0,0,0,0,0,0,0,0,0,0,0,0,0,0,0,0,0,0,0,0,0,0,0,0.1768,0.1769,0,0.1775,0.1775,0.1775,0.1751,0.175,0.175,0.175,0.1664,0.1662,0.166,0,0,0,0,0,0,0,0,0,0,0,0,0,0.1733,0.1733,0.1768,0.1769,0.1769,0.1775,0.1775,0.1775,0.1751,0.175,0.175,0.175,0.1664,0.1662,0.166,0,0,0,0,0,0,0,0,0,0,0,0,0,0.174,0.1733,0.1768,0.1761,0.1761,0.1776,0.1775,0.1775,0.1751,0.175,0.175,0.1749,0.1665,0.1662,0.1659,0.165,0,0,0.165,0.1649,0,0,0,0,0,0,0,0,0.174,0.1741,0.1762,0.1762,0.1762,0.1766,0.1731,0.173,0.1751,0.175,0.175,0.1749,0.1692,0.1687,0.1684,0.1646,0.1642,0.165,0.1648,0.1647,0.1646,0,0,0,0,0,0,0,0.1739,0.1741,0.1766,0.1762,0.1762,0.1758,0.1758,0.1731,0.1718,0.175,0.1749,0.1758,0.1691,0.1687,0.1682,0.1641,0.165,0.1647,0.1645,0.1644,0.168,0.1682,0,0,0,0,0,0,0.1749,0.174,0.1766,0.1767,0.1755,0.1759,0.1759,0.1761,0.1721,0.1716,0.1758,0.1757,0.1693,0.1685,0.1679,0.1725,0.1647,0.1644,0.1642,0.1677,0.168,0.1683,0,0,0,0,0,0,0.1748,0.175,0.1766,0.1758,0.176,0.1761,0.1763,0.1762,0.1767,0.1729,0.1721,0.1767,0.1692,0.1683,0.1682,0.1719,0.1642,0.164,0.1674,0.1678,0.1682,0.178,0,0,0,0,0,0,0.1746,0.175,0.1751,0.1758,0.1761,0.1795,0.1764,0.1762,0.1775,0.1773,0.1734,0.1725,0.1691,0.1687,0.1679,0.1714,0.1637,0.167,0.1675,0.168,0.1773,0.1786,0.1798,0,0,0,0,0,0.1745,0.1756,0.1751,0.1754,0.1763,0.1797,0.1798,0.1793,0.1776,0.1793,0.1771,0.1727,0.1715,0.1686,0.1676,0.1711,0.1668,0.1674,0.168,0.1767,0.1784,0.1798,0,0,0,0,0,0,0.1754,0.1755,0.1749,0.1763,0.1787,0.1795,0.1806,0.1804,0.1799,0.179,0.1747,0.1738,0.1756,0.1726,0.1696,0.1743,0.169,0.1694,0.1759,0.1774,0.1787,0.1795,0.1635,0,0,0,0,0,0.1755,0.1755,0.1772,0.1787,0.1796,0.1801,0.1811,0.1814,0.1814,0.1812,0.179,0.1773,0.1774,0.1767,0.1757,0.1769,0.1755,0.1793,0.1806,0.1816,0.1821,0.1857,0.1872,0.1703,0.1703,0.1703,0,0,0.1768,0.1766,0.1769,0.1788,0.1797,0.1824,0.1806,0.1832,0.1855,0.1801,0.1818,0.181,0.1789,0.1814,0.182,0.179,0.1858,0.1824,0.1833,0.1832,0.1865,0.1881,0.1895,0.1708,0.1707,0.1706,0,0,0.1792,0.1789,0.1796,0.1816,0.1838,0.1846,0.186,0.1878,0.1885,0.1906,0.1886,0.191,0.1888,0.1901,0.1898,0.1976,0.1926,0.1974,0.2036,0.2072,0.2086,0.2097,0.2099,0.211,0.1978,0.1978,0.1978,0,0.1808,0.1812,0.1811,0.183,0.185,0.1861,0.1891,0.1908,0.1927,0.1939,0.1923,0.195,0.1936,0.1982,0.2019,0.2004,0.2,0.1975,0.2087,0.2098,0.2109,0.2107,0.2118,0.1984,0.1983,0.1983,0.1982,0,0.1836,0.1846,0.186,0.1877,0.1905,0.1935,0.1964,0.1989,0.1995,0.201,0.2058,0.2061,0.2075,0.2093,0.2074,0.2153,0.2118,0.2099,0.2043,0.2132,0.2124,0.2134,0.1992,0.199,0.1988,0.1987,0,0,0.1846,0.1871,0.1874,0.1888,0.1928,0.1956,0.2002,0.2047,0.207,0.2108,0.2148,0.2192,0.2196,0.2198,0.2198,0.2241,0.2318,0.2207,0.2206,0.2198,0.2374,0.2311,0.2314,0.2316,0.2318,0.232,0.2337,0,0.1866,0.1898,0.1911,0.1959,0.198,0.2011,0.205,0.2094,0.2121,0.2164,0.2205,0.2239,0.2235,0.225,0.23,0.2311,0.2349,0.2314,0.2298,0.2297,0.2222,0.2326,0.2239,0.2244,0.2346,0.2348,0.2349,0,0.1878,0.1895,0.1936,0.1981,0.1995,0.2028,0.2084,0.2123,0.2187,0.2209,0.2265,0.2286,0.2367,0.2345,0.2423,0.2397,0.2397,0.2406,0.2406,0.2318,0.2253,0.2175,0.2257,0.2229,0.2363,0.2362,0.2361,0,0.1867,0.1912,0.194,0.1958,0.2015,0.2038,0.2071,0.213,0.2164,0.2238,0.2269,0.2352,0.2388,0.2434,0.246,0.2444,0.2528,0.2497,0.2439,0.2433,0.234,0.2322,0.2384,0.2552,0.2552,0.2552,0.2552,0,0.1876,0.1901,0.193,0.1949,0.198,0.2025,0.2068,0.2108,0.2174,0.222,0.2286,0.234,0.2415,0.2469,0.2486,0.2496,0.2545,0.247,0.245,0.2371,0.2356,0.2309,0.2288,0.2553,0.2553,0.2553,0.2553,0,0.187,0.1891,0.1917,0.1961,0.1973,0.1993,0.2057,0.2088,0.2149,0.2214,0.2243,0.2344,0.2412,0.2469,0.2534,0.251,0.2468,0.2518,0.2406,0.2373,0.2272,0.2258,0.2171,0.2115,0.2457,0.2455,0.2454,0,0.1879,0.1884,0.1909,0.1915,0.1933,0.1968,0.1991,0.2062,0.2099,0.2213,0.2242,0.2337,0.2396,0.2465,0.2454,0.2466,0.2424,0.2371,0.2332,0.2278,0.2249,0.2151,0.2104,0.2245,0.2243,0.2241,0.2239,0,0.1885,0.1878,0.1894,0.1892,0.1908,0.1934,0.1973,0.2004,0.2089,0.2144,0.2221,0.2283,0.2345,0.2338,0.2349,0.2338,0.2264,0.2324,0.2314,0.2136,0.1989,0.192,0.2202,0.222,0.2222,0.2223,0.2224,0.2225,0.1877,0.1874,0.1871,0.1867,0.1878,0.1889,0.1893,0.1943,0.1991,0.2045,0.2147,0.2176,0.2233,0.224,0.2218,0.2124,0.2111,0.2071,0.2072,0.1987,0.19,0.2125,0.209,0.2091,0.2092,0.2093,0.2094,0,0.1862,0.1855,0.185,0.1836,0.1818,0.1841,0.1868,0.1856,0.1875,0.1933,0.1979,0.2012,0.2018,0.2038,0.1988,0.1905,0.1806,0.1864,0.1739,0.1717,0.1969,0.1929,0.1802,0.1802,0.1802,0.1802,0.1802,0.1802,0.1858,0.1835,0.182,0.177,0.1758,0.172,0.1719,0.1705,0.1719,0.1706,0.17,0.1748,0.1869,0.1911,0.1834,0.1774,0.1665,0.1563,0.1583,0.1807,0.1827,0.1846,0.1808,0.1656,0.1656,0.1256,0.1253,0.1251]},{"header":{"parameterUnit":"m.s-1","parameterCategory":2,"la1":30.2991,"la2":30.254,"lo1":-89.0895,"lo2":-89.0444,"dy":0.0017,"dx":0.0017,"nx":28,"ny":28,"refTime":"2026-01-10T03:00:00:Z","depth":"0","parameterNumber":3,"parameterNumberName":"V-component_of_CURRENTS"},"data":[0,0,0,0,0,0,0,0,0,0,0,0,0,0,0,0,0,0,0,0,0,0,0,0,0,0,0,0,0,0,0,0,0,0,0,0,0,0,0,0,0,0,0,0,0,0,0,0,0,0,0,0,0,0,0,0,0,0,0.0099,0.0099,0,0.009,0.009,0.009,0.0079,0.0079,0.0079,0.0079,0.0058,0.0058,0.0058,0,0,0,0,0,0,0,0,0,0,0,0,0,0.0146,0.0145,0.0099,0.0098,0.0098,0.009,0.009,0.009,0.008,0.0079,0.0079,0.0079,0.0059,0.0058,0.0058,0,0,0,0,0,0,0,0,0,0,0,0,0,0.0131,0.0145,0.0099,0.0091,0.0091,0.009,0.009,0.009,0.008,0.0079,0.0079,0.0079,0.0059,0.0058,0.0058,0.0062,0,0,0.0056,0.0056,0,0,0,0,0,0,0,0,0.0132,0.013,0.0093,0.0092,0.0091,0.0085,0.0099,0.008,0.008,0.0085,0.0079,0.0078,0.0066,0.0065,0.0065,0.0061,0.006,0.0056,0.0056,0.0056,0.0056,0,0,0,0,0,0,0,0.0133,0.013,0.0096,0.0093,0.0092,0.0102,0.0099,0.0096,0.0078,0.0084,0.0083,0.0081,0.0065,0.0066,0.0065,0.006,0.0056,0.0056,0.0056,0.0055,0.0085,0.0086,0,0,0,0,0,0,0.013,0.0131,0.0096,0.0096,0.011,0.0101,0.0098,0.0088,0.0078,0.0076,0.0081,0.008,0.0067,0.0065,0.0064,0.0093,0.0056,0.0055,0.0055,0.0084,0.0085,0.0086,0,0,0,0,0,0,0.0131,0.0127,0.0097,0.0113,0.011,0.01,0.0089,0.0088,0.0086,0.0076,0.0074,0.008,0.0067,0.0065,0.0068,0.0091,0.0055,0.0055,0.0083,0.0084,0.0086,0.0135,0,0,0,0,0,0,0.0132,0.0127,0.012,0.0112,0.0109,0.0102,0.0089,0.0088,0.0084,0.0083,0.0074,0.0072,0.0066,0.0069,0.0068,0.009,0.0054,0.0081,0.0083,0.0085,0.0132,0.0139,0.0144,0,0,0,0,0,0.0134,0.0134,0.0119,0.0115,0.0098,0.0102,0.0102,0.0095,0.0085,0.009,0.0085,0.0072,0.0081,0.0069,0.0068,0.009,0.008,0.0083,0.0085,0.013,0.0137,0.0144,0,0,0,0,0,0,0.0166,0.0133,0.0116,0.0109,0.0104,0.01,0.0105,0.0095,0.0095,0.0093,0.0081,0.0079,0.0094,0.0084,0.0071,0.0106,0.0081,0.0083,0.0115,0.0122,0.0128,0.0137,0.0054,0,0,0,0,0,0.0163,0.0145,0.0128,0.0123,0.012,0.0109,0.0109,0.0104,0.0102,0.0101,0.0094,0.0093,0.0104,0.0105,0.0108,0.0121,0.0105,0.0136,0.0142,0.0147,0.0154,0.0156,0.0163,0.0094,0.0094,0.0094,0,0,0.0176,0.0154,0.0146,0.0127,0.0122,0.0128,0.0109,0.0112,0.0122,0.0099,0.0111,0.0111,0.0112,0.0133,0.0139,0.0125,0.0155,0.015,0.0154,0.0159,0.016,0.0166,0.0172,0.0096,0.0096,0.0095,0,0,0.0196,0.0172,0.0163,0.0159,0.0147,0.0144,0.0143,0.0137,0.0139,0.0147,0.0143,0.0157,0.0157,0.0173,0.0179,0.0217,0.0186,0.0215,0.0251,0.0253,0.0258,0.0263,0.0238,0.024,0.0217,0.0217,0.0218,0,0.0212,0.0195,0.0168,0.0166,0.0169,0.0151,0.0161,0.0165,0.0163,0.0174,0.0157,0.0186,0.0182,0.0225,0.0239,0.0231,0.0213,0.0224,0.026,0.0264,0.0268,0.0241,0.0243,0.022,0.022,0.022,0.0219,0,0.0224,0.0216,0.022,0.0202,0.0205,0.0214,0.0211,0.0219,0.0214,0.0219,0.0251,0.0251,0.0269,0.0275,0.0267,0.0304,0.0274,0.0267,0.0241,0.0278,0.0247,0.0248,0.0224,0.0223,0.0222,0.0222,0,0,0.0245,0.0228,0.023,0.0233,0.0224,0.0234,0.0251,0.027,0.0293,0.0294,0.0329,0.035,0.0347,0.0355,0.0352,0.0356,0.0362,0.0323,0.0322,0.0295,0.0343,0.0319,0.0317,0.0356,0.0357,0.0357,0.0304,0,0.0263,0.0271,0.0255,0.028,0.0289,0.0283,0.0307,0.0323,0.0332,0.0363,0.0375,0.0405,0.0379,0.0393,0.0394,0.0377,0.0368,0.0376,0.0313,0.0311,0.0284,0.0319,0.0323,0.0276,0.0305,0.0305,0.0305,0,0.0276,0.0279,0.03,0.032,0.0324,0.0338,0.0374,0.0392,0.0428,0.0439,0.0465,0.0468,0.0491,0.0457,0.0437,0.0439,0.0393,0.037,0.0367,0.0331,0.029,0.0247,0.0276,0.02,0.0306,0.0306,0.0305,0,0.0302,0.0315,0.0333,0.0338,0.0356,0.0372,0.0386,0.0417,0.0453,0.0488,0.0522,0.0531,0.0546,0.0506,0.045,0.0441,0.0413,0.0393,0.0325,0.0321,0.0307,0.0301,0.0256,0.0371,0.0371,0.0371,0.0372,0,0.0323,0.0342,0.0348,0.036,0.04,0.0398,0.0452,0.0467,0.0514,0.0579,0.0564,0.0618,0.0559,0.0537,0.0471,0.0402,0.0423,0.0339,0.0317,0.0322,0.0318,0.0237,0.019,0.0369,0.037,0.037,0.0371,0,0.0347,0.0347,0.0375,0.0397,0.041,0.0438,0.0494,0.0542,0.0568,0.0652,0.0671,0.0683,0.0653,0.0577,0.0508,0.0432,0.032,0.033,0.0326,0.0305,0.0173,0.0129,0.0053,0.0029,0.025,0.0249,0.0248,0,0.0357,0.037,0.0405,0.0433,0.0444,0.049,0.0533,0.0568,0.0626,0.0708,0.076,0.075,0.0777,0.0646,0.0503,0.0369,0.0298,0.0269,0.0263,0.0174,0.0109,0.0078,0.0062,0.025,0.0249,0.0249,0.0248,0,0.0382,0.0393,0.042,0.0479,0.0522,0.0583,0.0644,0.0701,0.0764,0.0842,0.0933,0.0958,0.0826,0.0706,0.0497,0.0397,0.0219,0.0255,0.0177,0.0122,0.0073,0.0036,0.0252,0.0244,0.0245,0.0245,0.0245,0.0245,0.0407,0.0434,0.0476,0.0534,0.0591,0.0675,0.0744,0.083,0.094,0.1073,0.1065,0.1126,0.0912,0.0638,0.047,0.0172,0.0185,0.01,0.0055,0.0033,0.0014,0.0208,0.0171,0.0171,0.0171,0.0171,0.0171,0,0.0443,0.0479,0.0535,0.061,0.0685,0.0707,0.0825,0.0915,0.1064,0.1176,0.1262,0.1193,0.0923,0.063,0.0227,0.0025,-0.0045,-0.0085,-0.0121,-0.0126,0.0059,0.0064,-0.0013,-0.0013,-0.0013,-0.0013,-0.0013,-0.0013,0.0469,0.0525,0.0556,0.0678,0.0739,0.0856,0.0932,0.1073,0.118,0.1344,0.1391,0.1407,0.1195,0.0435,-0.0044,-0.0152,-0.0266,-0.0316,-0.0362,-0.0238,-0.0224,-0.021,-0.0215,-0.035,-0.0351,-0.0512,-0.0514,-0.0515]}],[{"header":{"parameterUnit":"m.s-1","parameterCategory":2,"la1":30.2991,"la2":30.254,"lo1":-89.0895,"lo2":-89.0444,"dy":0.0017,"dx":0.0017,"nx":28,"ny":28,"refTime":"2026-01-10T03:00:00:Z","depth":"2","parameterNumber":2,"parameterNumberName":"U-component_of_CURRENTS"},"data":[0,0,0,0,0,0,0,0,0,0,0,0,0,0,0,0,0,0,0,0,0,0,0,0,0,0,0,0,0,0,0,0,0,0,0,0,0,0,0,0,0,0,0,0,0,0,0,0,0,0,0,0,0,0,0,0,0,0,0.1429,0.1428,0,0.1351,0.135,0.1349,0.1308,0.1308,0.1308,0.1308,0.128,0.1279,0.1278,0,0,0,0,0,0,0,0,0,0,0,0,0,0.1453,0.1453,0.1429,0.1428,0.1427,0.1351,0.135,0.1349,0.1308,0.1308,0.1308,0.1308,0.128,0.1279,0.1278,0,0,0,0,0,0,0,0,0,0,0,0,0,0.1414,0.1453,0.1429,0.1399,0.1395,0.1351,0.135,0.1348,0.1308,0.1308,0.1308,0.1308,0.1281,0.1279,0.1278,0.127,0,0,0.1275,0.1274,0,0,0,0,0,0,0,0,0.1417,0.1413,0.1404,0.1401,0.1397,0.134,0.1348,0.1325,0.1308,0.134,0.1308,0.1308,0.1305,0.1302,0.1285,0.1268,0.1267,0.1274,0.1274,0.1273,0.1273,0,0,0,0,0,0,0,0.1419,0.1416,0.1397,0.1403,0.1399,0.1358,0.1353,0.1342,0.1323,0.1337,0.1334,0.1327,0.1304,0.1286,0.1284,0.1267,0.1275,0.1273,0.1273,0.1272,0.1316,0.1318,0,0,0,0,0,0,0.1436,0.1419,0.1399,0.1395,0.1408,0.1358,0.1352,0.1357,0.1322,0.1317,0.1327,0.1326,0.1288,0.1286,0.1283,0.1347,0.1273,0.1272,0.1271,0.1314,0.1316,0.1318,0,0,0,0,0,0,0.1437,0.1436,0.1402,0.1405,0.1398,0.1358,0.1363,0.1356,0.1364,0.1314,0.131,0.1347,0.1288,0.1285,0.1288,0.1343,0.1272,0.1271,0.1312,0.1315,0.1317,0.1426,0,0,0,0,0,0,0.1438,0.1437,0.1447,0.1407,0.1399,0.1419,0.1363,0.1354,0.1359,0.1357,0.133,0.1325,0.1288,0.129,0.1287,0.134,0.127,0.1309,0.1313,0.1316,0.142,0.1433,0.1443,0,0,0,0,0,0.144,0.1453,0.1448,0.1446,0.1415,0.1421,0.1415,0.1383,0.136,0.1387,0.1346,0.1327,0.1311,0.129,0.1286,0.134,0.1308,0.1312,0.1316,0.1415,0.143,0.1443,0,0,0,0,0,0,0.1463,0.1448,0.1443,0.145,0.1458,0.1416,0.1417,0.1406,0.1392,0.138,0.1337,0.1331,0.1362,0.1332,0.131,0.1364,0.1313,0.1316,0.139,0.1403,0.1414,0.1436,0.1269,0,0,0,0,0,0.1476,0.1484,0.1476,0.1486,0.149,0.1462,0.1458,0.1446,0.1424,0.1418,0.1396,0.1373,0.1372,0.1372,0.1362,0.1382,0.1369,0.1419,0.143,0.144,0.1456,0.1486,0.1502,0.1332,0.1332,0.1332,0,0,0.1481,0.1478,0.1479,0.1492,0.148,0.1494,0.1461,0.1469,0.1482,0.1417,0.1426,0.1415,0.1386,0.141,0.1422,0.1394,0.1479,0.1445,0.1454,0.1464,0.1492,0.1509,0.1523,0.1335,0.1334,0.1334,0,0,0.1492,0.1503,0.1512,0.1524,0.1529,0.1526,0.1545,0.153,0.1532,0.1545,0.1504,0.1525,0.1511,0.1506,0.15,0.157,0.1541,0.1576,0.1647,0.1677,0.1692,0.1704,0.1698,0.1709,0.1578,0.1578,0.1578,0,0.1499,0.1509,0.152,0.1533,0.1541,0.1552,0.1571,0.1579,0.157,0.158,0.1568,0.1579,0.1561,0.1596,0.1619,0.16,0.1595,0.1597,0.1693,0.1705,0.1716,0.1707,0.1718,0.1584,0.1583,0.1583,0.1582,0,0.1511,0.1525,0.1534,0.1559,0.1586,0.1603,0.1626,0.1656,0.1666,0.1671,0.1723,0.1706,0.1713,0.1727,0.1692,0.1768,0.1732,0.1707,0.166,0.174,0.1724,0.1734,0.1592,0.159,0.1588,0.1587,0,0,0.1491,0.1535,0.1532,0.1552,0.1598,0.1618,0.1668,0.1716,0.1743,0.1779,0.1822,0.1852,0.1857,0.1852,0.1834,0.187,0.1939,0.1829,0.1828,0.1826,0.1986,0.1913,0.1915,0.1934,0.1937,0.1939,0.194,0,0.1491,0.1523,0.155,0.1591,0.1613,0.1655,0.1702,0.1751,0.1791,0.1839,0.1879,0.1912,0.19,0.1912,0.1955,0.1945,0.1971,0.194,0.1907,0.1906,0.1834,0.1927,0.1794,0.1781,0.1949,0.195,0.1951,0,0.1483,0.1506,0.1549,0.1609,0.1623,0.1661,0.1742,0.1781,0.1862,0.1891,0.1957,0.198,0.2052,0.2023,0.208,0.2061,0.2037,0.2031,0.203,0.1933,0.1851,0.173,0.1791,0.1966,0.1965,0.1964,0.1963,0,0.1463,0.1502,0.1543,0.1559,0.1635,0.1671,0.1717,0.1797,0.1841,0.1928,0.1973,0.2054,0.2089,0.2121,0.2119,0.2104,0.2164,0.2128,0.2038,0.203,0.1897,0.1873,0.2165,0.2165,0.2165,0.2165,0.2165,0,0.146,0.1485,0.1533,0.1557,0.1605,0.1659,0.173,0.1778,0.1865,0.1919,0.1995,0.205,0.212,0.216,0.2152,0.2131,0.2186,0.2075,0.2044,0.1928,0.1908,0.2049,0.2035,0.2165,0.2165,0.2165,0.2165,0,0.1454,0.1485,0.152,0.1581,0.1605,0.1637,0.1735,0.1778,0.1857,0.1932,0.1967,0.2065,0.2115,0.216,0.2191,0.215,0.2146,0.2109,0.1954,0.1906,0.1979,0.1971,0.2027,0.2024,0.2023,0.2021,0.202,0,0.1467,0.1485,0.1527,0.1544,0.1578,0.1636,0.168,0.1767,0.1811,0.1928,0.1955,0.2042,0.2066,0.2097,0.2074,0.2053,0.2098,0.1889,0.1846,0.201,0.1974,0.1969,0.1964,0.1701,0.1697,0.1694,0.1692,0,0.1485,0.1492,0.1518,0.1536,0.1573,0.1615,0.1676,0.1709,0.18,0.1849,0.1903,0.1934,0.1973,0.1908,0.1887,0.1851,0.1894,0.1823,0.2059,0.1756,0.1703,0.1668,0.1674,0.1664,0.1667,0.1669,0.1671,0.1672,0.1491,0.1495,0.151,0.1521,0.1554,0.1568,0.1585,0.1626,0.1663,0.1689,0.1774,0.1752,0.1784,0.1685,0.1631,0.1598,0.1715,0.1639,0.1649,0.1662,0.1623,0.1571,0.1497,0.1499,0.15,0.1502,0.1503,0,0.148,0.1487,0.1495,0.1498,0.1492,0.1533,0.1563,0.1532,0.1513,0.1547,0.1554,0.1428,0.1384,0.1425,0.1334,0.1312,0.1296,0.126,0.1248,0.1277,0.1302,0.1245,0.1019,0.1017,0.1016,0.1014,0,0,0.1487,0.1469,0.145,0.1418,0.1431,0.1411,0.1408,0.1343,0.1334,0.125,0.1231,0.131,0.1382,0.1186,0.1164,0.1085,0.1165,0.1034,0.1429,0.1446,0.1469,0.1534,0.1481,0,0,0,0,0]},{"header":{"parameterUnit":"m.s-1","parameterCategory":2,"la1":30.2991,"la2":30.254,"lo1":-89.0895,"lo2":-89.0444,"dy":0.0017,"dx":0.0017,"nx":28,"ny":28,"refTime":"2026-01-10T03:00:00:Z","depth":"2","parameterNumber":3,"parameterNumberName":"V-component_of_CURRENTS"},"data":[0,0,0,0,0,0,0,0,0,0,0,0,0,0,0,0,0,0,0,0,0,0,0,0,0,0,0,0,0,0,0,0,0,0,0,0,0,0,0,0,0,0,0,0,0,0,0,0,0,0,0,0,0,0,0,0,0,0,-0.0086,-0.0086,0,-0.0112,-0.0112,-0.0112,-0.0113,-0.0113,-0.0113,-0.0113,-0.0114,-0.0114,-0.0114,0,0,0,0,0,0,0,0,0,0,0,0,0,-0.0034,-0.0035,-0.0086,-0.0086,-0.0087,-0.0112,-0.0112,-0.0112,-0.0113,-0.0113,-0.0113,-0.0112,-0.0113,-0.0114,-0.0114,0,0,0,0,0,0,0,0,0,0,0,0,0,-0.0056,-0.0035,-0.0086,-0.0092,-0.0093,-0.0112,-0.0112,-0.0112,-0.0113,-0.0113,-0.0113,-0.0112,-0.0113,-0.0114,-0.0114,-0.012,0,0,-0.0115,-0.0115,0,0,0,0,0,0,0,0,-0.0055,-0.0058,-0.009,-0.0091,-0.0092,-0.011,-0.0094,-0.0114,-0.0113,-0.0103,-0.0112,-0.0112,-0.0111,-0.0112,-0.0115,-0.012,-0.012,-0.0115,-0.0115,-0.0115,-0.0115,0,0,0,0,0,0,0,-0.0053,-0.0057,-0.0094,-0.0091,-0.0092,-0.0092,-0.0095,-0.0098,-0.0106,-0.0104,-0.0105,-0.0111,-0.0112,-0.0115,-0.0115,-0.012,-0.0115,-0.0115,-0.0115,-0.0115,-0.01,-0.01,0,0,0,0,0,0,-0.0054,-0.0055,-0.0093,-0.0095,-0.0075,-0.0093,-0.0096,-0.0103,-0.0107,-0.0108,-0.0111,-0.0111,-0.0115,-0.0115,-0.0115,-0.0092,-0.0115,-0.0115,-0.0115,-0.0101,-0.01,-0.01,0,0,0,0,0,0,-0.0053,-0.0057,-0.0092,-0.0077,-0.0082,-0.0094,-0.0102,-0.0104,-0.0104,-0.0113,-0.0113,-0.0109,-0.0114,-0.0115,-0.0113,-0.0094,-0.0115,-0.0115,-0.0102,-0.0101,-0.01,-0.0066,0,0,0,0,0,0,-0.0051,-0.0057,-0.0061,-0.0077,-0.0083,-0.0095,-0.0103,-0.0105,-0.0109,-0.0109,-0.0111,-0.0111,-0.0114,-0.0113,-0.0113,-0.0094,-0.0116,-0.0102,-0.0101,-0.01,-0.0068,-0.0064,-0.0061,0,0,0,0,0,-0.005,-0.0051,-0.0061,-0.0066,-0.0088,-0.0095,-0.0097,-0.0105,-0.0109,-0.0104,-0.0109,-0.0111,-0.0106,-0.0113,-0.0113,-0.0094,-0.0103,-0.0102,-0.01,-0.0069,-0.0065,-0.0061,0,0,0,0,0,0,-0.0025,-0.0052,-0.0063,-0.0072,-0.0081,-0.0096,-0.0096,-0.0103,-0.0104,-0.0103,-0.011,-0.011,-0.0098,-0.0105,-0.0112,-0.0087,-0.0103,-0.0101,-0.0079,-0.0075,-0.0071,-0.0056,-0.0116,0,0,0,0,0,-0.0025,-0.0037,-0.0057,-0.0063,-0.0068,-0.0083,-0.0087,-0.0092,-0.0098,-0.0098,-0.0103,-0.0103,-0.0095,-0.0092,-0.0091,-0.0083,-0.009,-0.0069,-0.0066,-0.0063,-0.0051,-0.0045,-0.004,-0.0096,-0.0096,-0.0096,0,0,-0.002,-0.0035,-0.0043,-0.006,-0.0069,-0.0069,-0.0083,-0.0087,-0.0081,-0.0098,-0.0091,-0.0092,-0.0091,-0.0077,-0.0072,-0.008,-0.0054,-0.0061,-0.0059,-0.0048,-0.0043,-0.0038,-0.0033,-0.0095,-0.0095,-0.0095,0,0,-0.0011,-0.0026,-0.0033,-0.0042,-0.0056,-0.0058,-0.0057,-0.0071,-0.0068,-0.0066,-0.007,-0.0061,-0.0061,-0.005,-0.0045,-0.0023,-0.0036,-0.0024,0.0007,0.0012,0.0017,0.0021,0.0005,0.0007,-0.0022,-0.0022,-0.0021,0,-0.0004,-0.0015,-0.0033,-0.0039,-0.0041,-0.005,-0.0047,-0.0045,-0.0055,-0.0043,-0.0057,-0.0034,-0.0042,-0.0008,-0.0004,-0.0013,-0.0022,-0.0009,0.0017,0.0021,0.0025,0.0007,0.001,-0.002,-0.002,-0.002,-0.002,0,-0.0002,-0.001,-0.0011,-0.0021,-0.0021,-0.002,-0.0022,-0.0013,-0.0011,-0.0006,0.0023,0.0015,0.0033,0.0031,0.0018,0.0048,0.0027,0.002,0.0008,0.0033,0.0012,0.0014,-0.0017,-0.0018,-0.0018,-0.0019,0,0,0.0014,-0.0006,-0.0006,-0.0004,-0.0012,-0.0005,0.0011,0.0033,0.0063,0.0058,0.0095,0.01,0.01,0.0106,0.0097,0.0098,0.0101,0.0069,0.0068,0.0054,0.0097,0.0067,0.0066,0.0097,0.0098,0.0098,0.0066,0,0.0024,0.0023,0.0011,0.0025,0.0029,0.0029,0.0055,0.0074,0.0092,0.0125,0.0133,0.0162,0.0129,0.0142,0.0139,0.0119,0.011,0.0109,0.0074,0.0073,0.0045,0.0069,0.0075,0.0046,0.0068,0.0068,0.0068,0,0.0033,0.0034,0.0044,0.006,0.0064,0.0078,0.0129,0.0146,0.0189,0.0203,0.0231,0.0235,0.0248,0.0211,0.0191,0.0191,0.0145,0.012,0.0119,0.0085,0.0047,0.0027,0.0048,0.0071,0.0071,0.0071,0.007,0,0.0065,0.0062,0.0079,0.0076,0.0093,0.0113,0.0134,0.0177,0.0219,0.0255,0.0296,0.0302,0.0317,0.0276,0.0215,0.0205,0.0181,0.0161,0.0091,0.0087,0.0083,0.0078,0.0141,0.0141,0.0141,0.0141,0.0142,0,0.0083,0.0095,0.0096,0.0103,0.0149,0.0145,0.0213,0.0231,0.0288,0.0357,0.034,0.0395,0.0335,0.0315,0.0242,0.0174,0.02,0.0104,0.0085,0.0092,0.0088,0.0107,0.0103,0.014,0.014,0.0141,0.0141,0,0.0108,0.0105,0.0126,0.0146,0.0162,0.0194,0.0262,0.0317,0.0354,0.0442,0.046,0.0471,0.0442,0.0368,0.0297,0.0216,0.0148,0.0109,0.0108,0.009,0.0038,0.0037,0.0038,0.0037,0.0036,0.0035,0.0034,0,0.0113,0.0127,0.0159,0.0193,0.0204,0.0257,0.031,0.035,0.0414,0.05,0.055,0.0545,0.0557,0.0428,0.0288,0.0157,0.0141,0.0058,0.0043,0.0051,0.0032,0.0032,0.0032,0.0042,0.0042,0.0041,0.0041,0,0.0131,0.0148,0.0172,0.0242,0.0294,0.0357,0.0428,0.0491,0.0556,0.0634,0.0717,0.0729,0.0601,0.0472,0.0268,0.0173,0.0081,0.0044,0.0072,0.0066,0.0052,0.0035,0.0035,0.0037,0.0038,0.0038,0.0038,0.0038,0.0152,0.0181,0.023,0.0298,0.0366,0.0455,0.0529,0.0614,0.0724,0.0838,0.0822,0.0839,0.0662,0.0415,0.0235,0.0046,0.0063,-0.0009,-0.0007,-0.0003,0.0001,-0.0013,-0.0041,-0.0041,-0.0041,-0.0041,-0.0041,0,0.0176,0.0226,0.029,0.0378,0.0464,0.0491,0.0616,0.0701,0.0841,0.0906,0.0966,0.0806,0.0634,0.0439,0.0158,-0.0018,-0.0029,-0.0077,-0.0047,-0.0042,-0.0038,-0.0034,-0.0086,-0.0087,-0.0087,-0.0088,0,0,0.0202,0.0264,0.03,0.0445,0.0521,0.0649,0.0729,0.0852,0.0931,0.1007,0.1009,0.0952,0.0707,0.0492,0.0251,0.0091,0.0065,0.0052,0.0106,0.0176,0.0182,0.0019,0.0032,0,0,0,0,0]}],[{"header":{"parameterUnit":"m.s-1","parameterCategory":2,"la1":30.2991,"la2":30.254,"lo1":-89.0895,"lo2":-89.0444,"dy":0.0017,"dx":0.0017,"nx":28,"ny":28,"refTime":"2026-01-10T03:00:00:Z","depth":"4","parameterNumber":2,"parameterNumberName":"U-component_of_CURRENTS"},"data":[0,0,0,0,0,0,0,0,0,0,0,0,0,0,0,0,0,0,0,0,0,0,0,0,0,0,0,0,0,0,0,0,0,0,0,0,0,0,0,0,0,0,0,0,0,0,0,0,0,0,0,0,0,0,0,0,0,0,0.0187,0.0189,0,0.0334,0.0335,0.0337,0.0431,0.0432,0.0433,0.0434,0.0532,0.0534,0.0536,0,0,0,0,0,0,0,0,0,0,0,0,0,0.0123,0.0123,0.0187,0.0189,0.0191,0.0334,0.0336,0.0337,0.0431,0.0432,0.0433,0.0434,0.0531,0.0534,0.0536,0,0,0,0,0,0,0,0,0,0,0,0,0,0.0195,0.0122,0.0187,0.0258,0.0266,0.0333,0.0336,0.0338,0.0431,0.0432,0.0434,0.0435,0.0531,0.0533,0.0536,0.0527,0,0,0.0544,0.0546,0,0,0,0,0,0,0,0,0.0191,0.0197,0.0245,0.0253,0.0262,0.0369,0.0349,0.04,0.0431,0.0365,0.0434,0.0435,0.0474,0.0481,0.0502,0.0531,0.0536,0.0545,0.0546,0.0547,0.0548,0,0,0,0,0,0,0,0.0185,0.0192,0.0242,0.0247,0.0258,0.0329,0.0339,0.036,0.0407,0.0371,0.0379,0.04,0.0478,0.0499,0.0505,0.0537,0.0545,0.0547,0.0549,0.055,0.0663,0.0664,0,0,0,0,0,0,0.0165,0.0186,0.0238,0.0247,0.0233,0.0328,0.034,0.033,0.0408,0.0423,0.0398,0.0404,0.0494,0.0502,0.0509,0.0592,0.0547,0.055,0.0551,0.0662,0.0663,0.0665,0,0,0,0,0,0,0.0162,0.0166,0.0232,0.0225,0.0238,0.0327,0.0317,0.0333,0.0385,0.043,0.0443,0.0439,0.0496,0.0505,0.0552,0.0593,0.0551,0.0554,0.066,0.0662,0.0664,0.0701,0,0,0,0,0,0,0.0159,0.0164,0.0181,0.0222,0.0238,0.0259,0.0317,0.0335,0.0396,0.0405,0.0468,0.0477,0.0497,0.0548,0.0554,0.0596,0.0556,0.0658,0.0661,0.0663,0.0698,0.0704,0.0709,0,0,0,0,0,0.0156,0.0168,0.018,0.0189,0.0246,0.0258,0.0272,0.034,0.0397,0.0398,0.0464,0.0477,0.057,0.055,0.0558,0.0602,0.0657,0.066,0.0663,0.0696,0.0703,0.0709,0,0,0,0,0,0,0.0137,0.018,0.0194,0.0215,0.0227,0.0275,0.0322,0.0352,0.0409,0.0451,0.0486,0.0498,0.055,0.0568,0.0546,0.0642,0.0619,0.0623,0.0641,0.0648,0.0653,0.06,0.0558,0,0,0,0,0,0.0139,0.0161,0.0187,0.0195,0.0222,0.0275,0.0307,0.034,0.0388,0.0418,0.0464,0.0525,0.0564,0.06,0.0624,0.0677,0.0683,0.0713,0.0718,0.0723,0.0685,0.0748,0.0755,0.0675,0.0675,0.0675,0,0,0.0116,0.016,0.016,0.0195,0.0237,0.0258,0.0298,0.0348,0.0366,0.0418,0.0487,0.0535,0.0577,0.0634,0.0662,0.0663,0.0755,0.0727,0.0731,0.0689,0.0752,0.0759,0.0766,0.0677,0.0677,0.0676,0,0,0.0089,0.014,0.0151,0.0181,0.0249,0.0278,0.029,0.0351,0.039,0.0434,0.0494,0.0555,0.0619,0.0662,0.0689,0.0736,0.0768,0.0775,0.078,0.0843,0.0849,0.0855,0.0894,0.0903,0.0797,0.0797,0.0797,0,0.0064,0.0092,0.0148,0.0183,0.0222,0.0283,0.0297,0.0334,0.0396,0.0435,0.0455,0.0589,0.0619,0.0702,0.0719,0.0746,0.0787,0.0755,0.0849,0.0855,0.086,0.0898,0.0908,0.0799,0.0799,0.0798,0.0798,0,0.0044,0.0085,0.0108,0.0166,0.0199,0.0234,0.0285,0.0332,0.0399,0.0439,0.0531,0.0589,0.0674,0.0706,0.0719,0.0798,0.0818,0.0836,0.0828,0.087,0.0909,0.0918,0.0802,0.0801,0.08,0.08,0,0,-0.0045,0.0062,0.008,0.0124,0.0213,0.0236,0.0282,0.0335,0.0403,0.0464,0.054,0.0607,0.0679,0.0711,0.0777,0.0818,0.0891,0.0847,0.0849,0.0876,0.1034,0.0947,0.0948,0.0954,0.0955,0.0956,0.1054,0,-0.0071,-0.0015,0.0043,0.0098,0.0147,0.0225,0.0264,0.0331,0.0405,0.0494,0.0572,0.0669,0.0678,0.076,0.08,0.0857,0.0913,0.0861,0.0994,0.0996,0.0907,0.0954,0.096,0.106,0.1062,0.1064,0.1065,0,-0.0078,-0.0027,0.001,0.012,0.0149,0.0181,0.0304,0.0345,0.0465,0.0532,0.0639,0.0717,0.0797,0.0807,0.0913,0.0895,0.0957,0.099,0.0996,0.0892,0.0923,0.1006,0.1081,0.108,0.1078,0.1077,0.1076,0,-0.0112,-0.0027,0.0009,0.0045,0.0149,0.0192,0.0256,0.0371,0.0449,0.0582,0.0665,0.077,0.0862,0.092,0.0984,0.0977,0.1083,0.1097,0.1078,0.1073,0.1105,0.1098,0.1177,0.1177,0.1177,0.1177,0.1176,0,-0.011,-0.0073,0.001,0.0037,0.0113,0.0198,0.0301,0.0373,0.0515,0.0611,0.071,0.0797,0.0899,0.0979,0.1009,0.1053,0.1124,0.1057,0.1089,0.1123,0.1116,0.1113,0.1104,0.118,0.118,0.1179,0.1178,0,-0.013,-0.0086,-0.0042,0.0054,0.0102,0.0163,0.033,0.0405,0.054,0.0667,0.0721,0.0856,0.0938,0.102,0.1121,0.11,0.1139,0.1156,0.1172,0.1207,0.108,0.1072,0.1123,0.1121,0.1119,0.1117,0.1116,0,-0.0139,-0.0118,-0.0042,-0.0001,0.005,0.0169,0.0249,0.0403,0.0473,0.0681,0.0712,0.0872,0.0945,0.102,0.1078,0.1142,0.1147,0.1159,0.11,0.1047,0.1074,0.1069,0.1064,0.1113,0.1112,0.1112,0.1111,0,-0.0162,-0.0148,-0.0117,-0.0035,0.0042,0.0135,0.0249,0.0319,0.0486,0.0608,0.0733,0.0829,0.0924,0.0979,0.1059,0.1091,0.1123,0.1138,0.1142,0.1086,0.1035,0.1062,0.106,0.1104,0.1105,0.1106,0.1106,0,-0.0195,-0.0182,-0.0142,-0.0061,0.0018,0.0091,0.0163,0.0276,0.039,0.061,0.0635,0.0795,0.091,0.0955,0.1,0.104,0.1028,0.0993,0.1005,0.1013,0.0926,0.0841,0.0869,0,0,0,0,0,-0.0212,-0.0189,-0.0146,-0.0076,-0.0013,0.0048,0.016,0.0228,0.0386,0.0461,0.0572,0.0662,0.0789,0.0842,0.0866,0.0917,0.1001,0.0935,0.0958,0.1066,0.1074,0.098,0,0,0,0,0,0,-0.0211,-0.0194,-0.0163,-0.01,-0.0048,0.0027,0.0099,0.0191,0.0238,0.0404,0.0469,0.0599,0.071,0.0781,0.0849,0.0867,0.0863,0.1027,0.1025,0.1061,0.1069,0.1075,0.0981,0,0,0,0,0]},{"header":{"parameterUnit":"m.s-1","parameterCategory":2,"la1":30.2991,"la2":30.254,"lo1":-89.0895,"lo2":-89.0444,"dy":0.0017,"dx":0.0017,"nx":28,"ny":28,"refTime":"2026-01-10T03:00:00:Z","depth":"4","parameterNumber":3,"parameterNumberName":"V-component_of_CURRENTS"},"data":[0,0,0,0,0,0,0,0,0,0,0,0,0,0,0,0,0,0,0,0,0,0,0,0,0,0,0,0,0,0,0,0,0,0,0,0,0,0,0,0,0,0,0,0,0,0,0,0,0,0,0,0,0,0,0,0,0,0,0.0077,0.0076,0,-0.0014,-0.0015,-0.0016,-0.0053,-0.0053,-0.0052,-0.0052,-0.0055,-0.0055,-0.0055,0,0,0,0,0,0,0,0,0,0,0,0,0,0.0189,0.0187,0.0077,0.0076,0.0075,-0.0014,-0.0015,-0.0016,-0.0053,-0.0053,-0.0052,-0.0052,-0.0055,-0.0055,-0.0055,0,0,0,0,0,0,0,0,0,0,0,0,0,0.0125,0.0187,0.0078,0.0044,0.004,-0.0014,-0.0015,-0.0016,-0.0053,-0.0053,-0.0052,-0.0052,-0.0055,-0.0055,-0.0055,-0.0056,0,0,-0.0055,-0.0056,0,0,0,0,0,0,0,0,0.0129,0.0122,0.005,0.0046,0.0042,-0.0024,0.0023,-0.0026,-0.0053,-0.0015,-0.0052,-0.0052,-0.0038,-0.0039,-0.0055,-0.0056,-0.0056,-0.0055,-0.0056,-0.0056,-0.0056,0,0,0,0,0,0,0,0.0134,0.0125,0.0043,0.0049,0.0043,0.0023,0.0014,0.0013,-0.0022,-0.0018,-0.0022,-0.0036,-0.0039,-0.0054,-0.0055,-0.0056,-0.0055,-0.0056,-0.0056,-0.0056,-0.0071,-0.0072,0,0,0,0,0,0,0.0142,0.0129,0.0046,0.004,0.0084,0.0021,0.0011,-0.0001,-0.0024,-0.0029,-0.0035,-0.0037,-0.0054,-0.0055,-0.0055,-0.0071,-0.0056,-0.0056,-0.0056,-0.0071,-0.0071,-0.0072,0,0,0,0,0,0,0.0144,0.0135,0.005,0.0081,0.0068,0.0019,0.0005,-0.0003,-0.0027,-0.0039,-0.0041,-0.0053,-0.0054,-0.0055,-0.0064,-0.007,-0.0056,-0.0056,-0.007,-0.0071,-0.0071,-0.0093,0,0,0,0,0,0,0.0148,0.0137,0.0126,0.0082,0.0067,0.0021,0.0005,-0.0005,-0.0036,-0.0039,-0.0054,-0.0054,-0.0054,-0.0064,-0.0064,-0.007,-0.0056,-0.007,-0.0071,-0.0071,-0.0092,-0.0094,-0.0096,0,0,0,0,0,0.0152,0.014,0.0127,0.0116,0.0056,0.002,0.0011,-0.0023,-0.0037,-0.0045,-0.006,-0.0054,-0.0068,-0.0065,-0.0065,-0.0071,-0.007,-0.0071,-0.0071,-0.0091,-0.0094,-0.0096,0,0,0,0,0,0,0.018,0.0133,0.0118,0.0091,0.0059,0.0013,-0.0005,-0.0027,-0.0049,-0.0056,-0.0061,-0.0062,-0.0072,-0.0068,-0.0064,-0.0077,-0.0067,-0.0068,-0.0081,-0.0084,-0.0086,-0.0069,-0.0056,0,0,0,0,0,0.0182,0.0161,0.0118,0.0096,0.0079,0.0036,0.0014,-0.0011,-0.0037,-0.0049,-0.0062,-0.0072,-0.0075,-0.0077,-0.0081,-0.0088,-0.0076,-0.0091,-0.0093,-0.0095,-0.0081,-0.0075,-0.0075,-0.0074,-0.0074,-0.0074,0,0,0.0197,0.0156,0.0152,0.01,0.0071,0.0059,0.0024,-0.0014,-0.0024,-0.0043,-0.0062,-0.0081,-0.0079,-0.009,-0.0093,-0.0088,-0.0091,-0.0096,-0.0098,-0.0082,-0.0076,-0.0076,-0.0076,-0.0075,-0.0075,-0.0075,0,0,0.0222,0.017,0.0175,0.0144,0.0091,0.0059,0.0049,-0.0002,-0.0027,-0.0055,-0.0066,-0.0088,-0.0102,-0.0102,-0.0101,-0.0114,-0.0103,-0.0121,-0.0117,-0.0113,-0.0112,-0.0112,-0.0104,-0.0103,-0.0121,-0.0121,-0.0121,0,0.0243,0.023,0.0172,0.0161,0.014,0.0066,0.0073,0.0033,-0.0017,-0.0032,-0.006,-0.0094,-0.0103,-0.0098,-0.0112,-0.0118,-0.0114,-0.0109,-0.0115,-0.0114,-0.0113,-0.0105,-0.0104,-0.0122,-0.0122,-0.0122,-0.0122,0,0.0278,0.0262,0.0253,0.0221,0.0193,0.017,0.0115,0.008,0.0027,-0.0011,-0.0046,-0.008,-0.0094,-0.011,-0.0118,-0.0117,-0.0117,-0.012,-0.0107,-0.0114,-0.0106,-0.0104,-0.0124,-0.0124,-0.0123,-0.0123,0,0,0.0324,0.0296,0.0292,0.0287,0.0216,0.0197,0.017,0.013,0.0112,0.0035,0.0025,-0.0024,-0.0069,-0.0069,-0.0093,-0.0102,-0.0109,-0.0114,-0.0113,-0.0104,-0.01,-0.0118,-0.0118,-0.0119,-0.0119,-0.0118,-0.0099,0,0.0368,0.0386,0.0356,0.0357,0.0347,0.028,0.0264,0.0209,0.0147,0.011,0.0043,0.0015,-0.0045,-0.0062,-0.0084,-0.01,-0.0103,-0.0114,-0.0095,-0.0094,-0.0108,-0.0115,-0.0117,-0.0097,-0.0097,-0.0096,-0.0096,0,0.0392,0.0395,0.0431,0.0407,0.0401,0.0394,0.0341,0.0315,0.024,0.0195,0.0135,0.0079,0.0037,-0.0007,-0.005,-0.0058,-0.0075,-0.0092,-0.0092,-0.0095,-0.0108,-0.0086,-0.0092,-0.0092,-0.0093,-0.0093,-0.0093,0,0.0411,0.0428,0.0462,0.0451,0.0427,0.0429,0.0401,0.0333,0.0314,0.0242,0.0224,0.0148,0.012,0.0069,-0.0007,-0.0022,-0.004,-0.0058,-0.0084,-0.0085,-0.0064,-0.0064,-0.0059,-0.0059,-0.0059,-0.0059,-0.0059,0,0.0412,0.0431,0.0475,0.0476,0.0508,0.0458,0.0459,0.0422,0.0373,0.0352,0.0262,0.0238,0.0138,0.0096,0.0028,-0.0033,-0.0015,-0.0076,-0.0081,-0.0075,-0.0077,-0.0062,-0.0063,-0.0058,-0.0058,-0.0058,-0.0058,0,0.0386,0.0425,0.0463,0.0492,0.051,0.0511,0.0509,0.0501,0.0445,0.0423,0.0405,0.032,0.0247,0.0159,0.0092,0.0026,-0.0031,-0.0044,-0.0026,-0.0031,-0.0085,-0.0087,-0.0071,-0.0071,-0.0072,-0.0072,-0.0072,0,0.0376,0.0394,0.0488,0.0535,0.055,0.0561,0.0577,0.0535,0.0516,0.0461,0.0454,0.0393,0.0323,0.0215,0.0114,0.0004,-0.0015,-0.0038,-0.0075,-0.0079,-0.0085,-0.0087,-0.0088,-0.0073,-0.0073,-0.0073,-0.0073,0,0.0339,0.0389,0.0433,0.0546,0.0595,0.0635,0.0636,0.0628,0.0565,0.0561,0.0488,0.0403,0.0336,0.0215,0.0139,0.0052,-0.0032,-0.0043,-0.0043,-0.0078,-0.0082,-0.0088,-0.0088,-0.0075,-0.0074,-0.0074,-0.0074,0,0.0327,0.0358,0.0446,0.0535,0.0637,0.0667,0.0659,0.0635,0.0612,0.054,0.0525,0.0425,0.0377,0.0242,0.016,0.0077,0.0048,0.0012,0.0009,0.0009,0.0009,0.0014,0.0054,0,0,0,0,0,0.0301,0.0339,0.0427,0.0514,0.0628,0.0665,0.0698,0.0668,0.0628,0.0588,0.0544,0.0468,0.0323,0.026,0.0176,0.0145,0.0032,0.0043,-0.0011,-0.0083,-0.0081,-0.01,0,0,0,0,0,0,0.0287,0.0357,0.0402,0.05,0.0559,0.063,0.0651,0.0612,0.057,0.0539,0.047,0.0439,0.0309,0.0373,0.0171,0.0145,0.0096,-0.0016,-0.0018,-0.0084,-0.0082,-0.0081,-0.0099,0,0,0,0,0]}]]